Regional Weather Roundup
Issued by NWS

Home | Current Version | Previous Version | Graphics & Text | Print | Product List | Glossary On
Versions: 1 2 3 4 5 6 7 8 9 10 11 12 13 14 15 16 17 18 19 20 21 22 23 24 25 26 27 28 29 30 31 32 33 34 35 36 37 38 39 40 41 42 43 44 45 46 47 48 49 50
000
ASUS45 KABQ 282301
RWRNM
NEW MEXICO REGIONAL WEATHER ROUNDUP
NATIONAL WEATHER SERVICE ALBUQUERQUE NM
500 PM MDT WED SEP 28 2016

NOTE: "FAIR" MEANS FEW OR NO CLOUDS BELOW 12,000 FEET AGL WITH NO
       SIGNIFICANT WEATHER OR OBSTRUCTIONS TO VISION.

      THIS PRODUCT IS RELEASED AS TWO VERSIONS.  ONE VERSION NEAR
      THE TOP OF THE HOUR CONTAINING PRELIMINARY DATA FROM ALBUQUERQUE
      AND OTHER STATIONS.  A FINAL VERSION WITH ADDITIONAL DATA IS
      ISSUED ABOUT 10 MINUTES AFTER THE HOUR.

NMZ501-503-504-510>518-290000-
NORTHWEST PLATEAU/NORTHCENTRAL MOUNTAINS

CITY           SKY/WX    TMP DP  RH WIND       PRES   REMARKS
FARMINGTON     FAIR      79  34  19 CALM      30.22F
LOS ALAMOS     FAIR      75  24  14 SE12      30.37S
SANTA FE       FAIR      80  27  14 SE14      30.30R
TAOS           FAIR      75  25  15 SE15G22     N/A

$$
NMZ402-403-502-505>509-290000-
WESTCENTRAL MOUNTAINS/SOUTHWEST MOUNTAINS

CITY           SKY/WX    TMP DP  RH WIND       PRES   REMARKS
GALLUP         FAIR      74  42  31 W8        30.30F
SILVER CITY    PTSUNNY   74  49  41 SE9       30.26S

$$
NMZ407-409-411-412-290000-
SOUTHERN DESERTS

CITY           SKY/WX    TMP DP  RH WIND       PRES   REMARKS
DEMING         FAIR      79  52  38 E8        30.19F
LAS CRUCES     FAIR      78  49  35 CALM      30.21F
HOLLOMAN AFB   FAIR      82  51  33 S8        30.16S
ALAMOGORDO     FAIR      81  50  34 S8        30.18S
T OR C         FAIR      81  45  28 SW10G18   30.20S

$$
NMZ519>523-290000-
CENTRAL VALLEYS/CENTRAL HIGHLANDS

CITY           SKY/WX    TMP DP  RH WIND       PRES   REMARKS
ALBUQUERQUE    PTSUNNY   80  43  26 W8        30.23F
DOUBLE EAGLE   PTSUNNY   81  43  26 VRB6      30.27F
MORIARTY ARPT  FAIR      80  25  13 E15G21    30.33R
CLINES CORNERS FAIR      73  28  18 E12       30.39R
BELEN          FAIR      80  41  24 CALM      30.23S
SOCORRO        FAIR      83  38  20 S12       30.20F

$$
NMZ524>526-539-540-290000-
SOUTHCENTRAL MOUNTAINS

CITY           SKY/WX    TMP DP  RH WIND       PRES   REMARKS
RUIDOSO        FAIR      70  39  32 SE10      30.38R

$$
NMZ527>531-290000-
NORTHEAST HIGHLANDS/NORTHEAST PLAINS

CITY           SKY/WX    TMP DP  RH WIND       PRES   REMARKS
LAS VEGAS      FAIR      76  26  15 NE12      30.37S
RATON          FAIR      76  25  15 SE6       30.35S
CLAYTON        FAIR      81  32  17 NE10      30.29R

$$
NMZ532>537-290000-
EASTCENTRAL PLAINS

CITY           SKY/WX    TMP DP  RH WIND       PRES   REMARKS
TUCUMCARI      FAIR      88  27  11 E9        30.19R
CANNON AFB     NOT AVBL
CLOVIS AIRPORT FAIR      81  41  24 SE8       30.23R

$$
NMZ028-029-538-290000-
SOUTHEAST PLAINS

CITY           SKY/WX    TMP DP  RH WIND       PRES   REMARKS
ROSWELL        FAIR      85  42  22 SE6       30.17S
ARTESIA        FAIR      81  50  34 CALM      30.17F
CARLSBAD       FAIR      80  53  39 SE5       30.15F
HOBBS          MOSUNNY   81  43  26 E8        30.19S


$$




USA.gov is the U.S. government's official web portal to all federal, state and local government web resources and services.